Location: Hopville
(44.8032°N, 123.1329°W)
Time: 16:27:43
(UTC+00:00)

Cosmos 1544 Rocket - Pass Details

Date: 24 January 2021
Orbit: 605 x 630 km, 82.5° (Epoch: 28 February)

Event Time Altitude Azimuth Distance (km) Brightness Sun altitude
Exits shadow 14:12:13 27° 269° (W) 1,189 4.4 -15.5°
Maximum altitude 14:12:56 28° 287° (WNW) 1,151 4.3 -15.3°
Drops below altitude 10° 14:16:42 10° 347° (NNW) 1,968 5.9 -14.7°
Sets 14:19:11 0° 359° (N) 2,879 6.8 -14.3°
